PD3LKN Weather Reports


time (UTC)temp
F
wind
direction
speed
knots
gust
knots
rain 1hr
in
rain 24hr
in
rain mn
in
humidity
%
barometer
mb
20260505184004 53 164 8.7 8.7 0.00 0.00 0.00 77 1013.9
20260505182004 54 162 8.7 8.7 0.00 0.00 0.00 74 1014.2
20260505180004 55 272 2.6 2.6 0.00 0.00 0.00 74 1014.2
20260505175004 54 110 2.6 4.3 0.00 0.00 0.00 74 1013.9
20260505174004 54 131 4.3 4.3 0.00 0.00 0.00 75 1014.2
20260505172004 55 146 4.3 4.3 0.00 0.00 0.00 74 1014.2
20260505171004 55 146 4.3 4.3 0.00 0.00 0.00 74 1014.2
20260505170004 55 221 2.6 2.6 0.00 0.00 0.00 72 1014.2
20260505164004 56 236 4.3 7.0 0.00 0.00 0.00 72 1014.2
20260505163005 56 267 1.7 7.0 0.00 0.00 0.00 69 1014.2
20260505162004 56 272 1.7 1.7 0.00 0.00 0.00 69 1014.2
20260505161005 56 272 1.7 2.6 0.00 0.00 0.00 69 1014.2
20260505153004 57 134 4.3 4.3 0.00 0.00 0.00 68 1014.2
20260505152004 57 176 2.6 4.3 0.00 0.00 0.00 68 1014.2
20260505151005 56 252 4.3 5.2 0.00 0.00 0.00 69 1014.2
20260505125004 55 248 6.1 6.1 0.00 0.00 0.00 68 1015.2
20260505124004 55 274 6.1 6.1 0.00 0.00 0.00 68 1014.9
20260505123004 55 274 4.3 6.1 0.00 0.00 0.00 68 1014.9
20260505122004 55 227 5.2 5.2 0.00 0.00 0.00 69 1015.2
20260505121006 55 227 4.3 5.2 0.00 0.00 0.00 69 1015.2
20260505120005 56 115 5.2 5.2 0.00 0.00 0.00 69 1015.6
20260505115004 56 115 5.2 6.1 0.00 0.00 0.00 69 1015.6
20260505114005 56 160 5.2 6.1 0.00 0.00 0.00 69 1015.6
20260505113004 55 177 6.1 6.1 0.00 0.00 0.00 70 1015.2
20260505102004 55 140 3.5 5.2 0.00 0.00 0.00 73 1015.9
20260505101004 55 277 5.2 5.2 0.00 0.00 0.00 74 1015.9
20260505100004 55 192 4.3 4.3 0.00 0.00 0.00 73 1015.8
20260505095005 55 272 4.3 5.2 0.00 0.00 0.00 72 1015.6
20260505094004 53 182 4.3 5.2 0.00 0.00 0.00 76 1016.0
20260505093004 53 138 5.2 5.2 0.00 0.00 0.00 76 1016.3
20260505092004 54 218 5.2 5.2 0.00 0.00 0.00 75 1015.6
20260505091004 53 182 4.3 4.3 0.00 0.00 0.00 77 1015.6
20260505085004 52 116 4.3 4.3 0.00 0.00 0.00 80 1015.6
20260505084004 52 110 4.3 4.3 0.00 0.00 0.00 82 1015.6
20260505083005 52 188 4.3 5.2 0.00 0.00 0.00 82 1015.6
20260505081004 52 211 2.6 5.2 0.00 0.00 0.00 80 1015.6
20260505080004 52 208 2.6 2.6 0.00 0.00 0.00 82 1015.9
20260505075004 51 145 4.3 5.2 0.00 0.00 0.00 83 1015.9
20260505074004 51 144 5.2 5.2 0.00 0.00 0.00 83 1015.9
20260505073004 51 159 5.2 5.2 0.00 0.00 0.00 87 1016.3
20260505072004 51 159 5.2 5.2 0.00 0.00 0.00 87 1016.3
20260505070005 50 159 5.2 5.2 0.00 0.00 0.00 89 1016.3
20260505065004 50 150 4.3 5.2 0.00 0.00 0.00 89 1016.6
20260505064004 50 131 4.3 5.2 0.00 0.00 0.00 89 1016.6
20260505063004 50 139 5.2 5.2 0.00 0.00 0.00 89 1016.6
20260505062004 50 116 2.6 5.2 0.00 0.00 0.00 89 1016.3
20260505060004 50 128 4.3 5.2 0.00 0.00 0.00 89 1016.3
20260505054004 50 131 4.3 5.2 0.00 0.00 0.00 89 1016.3
20260505053004 51 226 4.3 4.3 0.00 0.00 0.00 89 1016.3
20260505052004 51 154 4.3 4.3 0.00 0.00 0.00 90 1015.9
20260505051004 51 172 3.5 5.2 0.00 0.00 0.00 90 1015.9